Location: Unspecified
(43.4354°N, 0.0000°E)
Time: 23:12:06
(UTC+00:00)

S-56A Canister/Altair - Pass Details

Date: 03 July 2019
Orbit: 632 x 2500 km, 38.9° (Epoch: 18 July)

Event Time Altitude Azimuth Distance (km) Brightness Sun altitude
Rises 09:26:39 0° 192° (SSW) 6,116 12.2 51.7°
Reaches altitude 10° 09:32:06 10° 178° (S) 5,155 12.1 52.6°
Maximum altitude 09:41:58 21° 137° (SE) 4,133 12.2 54.3°
Drops below altitude 10° 09:50:54 10° 95° (E) 4,653 12.2 55.8°
Sets 09:55:23 0° 81° (E) 5,388 12.2 56.5°
